Temp
61 61 61 61 61 61 61 61 61 61 61 62 62 62 62 62 63 70 59 62 65 66 65 71 70 70 71 68 70 71 59 57 61 62 63 64 60 68 70 66 71 72 72 75 75
61 60 60 60 60 61 61 61 61 61 61 61 62 62 62 62 66 64 65 66 65 65 67 66 65 68 66 65 66 64 60 61 61 62 59 61 61 62 62 64 67 71 77 75 73
60 60 60 60 60 60 61 61 61 61 61 61 62 62 62 64 62 61 66 65 64 66 68 66 66 67 61 64 61 62 58 59 62 60 60 58 60 65 60 58 66 66 68 69 69
59 59 59 59 59 60 60 61 61 61 61 61 61 62 62 67 52 65 64 64 64 70 68 66 64 61 60 58 59 55 59 59 59 59 57 57 60 58 61 62 68 68 68 68 68
59 58 58 59 59 60 60 60 60 60 60 61 61 61 64 62 58 70 64 66 70 69 64 62 61 60 56 57 58 56 57 58 59 57 58 58 56 58 59 66 69 68 66 66 68
58 58 58 58 59 59 60 60 60 60 60 61 62 60 65 54 68 69 65 66 65 66 63 63 58 61 56 55 55 55 55 57 57 57 57 52 56 58 64 67 64 65 65 67 67
58 58 57 58 58 59 59 59 60 60 60 61 62 68 64 57 69 69 67 63 64 63 61 62 63 60 57 53 55 54 51 59 56 56 55 55 55 53 65 66 62 63 65 66 66
57 57 57 57 58 58 59 59 59 60 61 62 62 68 58 66 71 66 66 64 66 65 62 63 63 59 55 55 54 53 53 50 59 55 55 53 46 61 65 63 61 63 64 64 63
57 57 57 57 58 58 59 58 59 60 61 62 64 64 56 66 62 65 65 59 62 63 64 64 62 56 59 53 51 53 45 47 49 57 52 50 45 57 64 62 60 61 62 61 61
57 57 57 57 57 58 58 58 61 62 65 67 67 60 60 54 59 61 65 61 58 59 58 58 58 56 54 51 40 41 42 45 44 52 52 47 47 57 62 61 60 60 60 59 60
57 57 57 57 58 58 60 65 60 59 59 52 52 53 55 61 61 62 62 58 60 59 51 53 52 43 44 46 45 43 41 41 48 53 45 46 46 53 60 60 58 59 58 59 59
57 57 57 57 57 57 61 58 51 53 51 54 54 55 56 57 54 58 63 56 55 50 53 51 44 45 46 46 44 44 43 43 47 51 46 45 45 53 59 57 58 58 58 58 58
57 56 56 56 57 60 57 52 56 56 54 51 53 53 53 55 51 51 56 53 50 49 47 46 44 46 45 45 42 43 42 41 38 43 48 44 46 53 59 56 57 57 58 57 57
57 56 56 56 55 58 55 55 57 57 46 47 50 52 54 54 49 55 55 51 50 45 46 45 46 43 43 43 42 36 44 42 39 37 33 45 30 47 53 53 57 56 57 57 58
56 56 55 56 57 56 53 56 56 54 34 47 49 56 54 50 48 51 54 53 46 44 45 42 42 41 41 42 43 39 44 40 40 36 36 40 32 44 54 50 53 56 57 57 56
56 55 55 58 58 54 56 56 54 37 34 37 47 46 47 49 48 51 51 54 49 45 45 43 45 43 43 44 44 44 43 43 40 37 27 37 35 39 46 47 51 54 54 54 52
55 54 55 57 54 55 56 56 36 33 40 36 41 45 44 42 44 45 45 43 42 38 39 44 42 44 43 41 45 43 36 30 28 28 29 38 34 39 49 52 49 49 50 51 50
54 54 49 52 55 55 54 43 33 34 34 40 41 42 42 40 41 42 43 42 42 40 40 36 35 41 42 39 36 36 33 27 20 25 28 37 27 41 52 51 52 50 48 47 47
53 52 48 49 52 53 50 31 35 35 37 37 38 32 34 38 39 41 40 41 40 39 34 36 37 41 40 41 40 34 32 37 26 29 23 33 41 49 50 51 49 45 45 43 43
46 45 44 48 50 51 35 37 35 43 41 41 35 33 34 33 38 39 38 41 38 40 41 36 29 40 39 40 41 36 39 28 28 20 19 31 34 38 43 44 44 42 41 40 41
45 39 43 47 48 45 33 34 35 42 43 42 35 32 34 33 35 34 35 38 42 38 41 38 32 36 37 36 37 33 31 30 31 29 23 21 31 47 44 46 39 40 39 37 35
42 33 45 44 35 33 32 34 41 39 41 40 42 38 34 32 32 35 36 39 44 42 31 38 31 28 36 40 40 38 33 33 25 26 29 26 26 49 51 48 43 38 35 35 35
37 34 43 42 29 32 33 37 40 38 39 39 38 41 36 32 32 33 37 40 42 40 32 35 29 25 30 33 36 33 36 35 31 28 22 21 31 53 50 45 42 36 35 33 33
37 31 33 36 35 35 33 33 33 42 41 42 38 39 34 30 33 31 35 37 40 40 38 38 29 26 30 34 33 30 35 36 27 22 25 27 30 37 38 35 36 35 35 32 30
39 33 34 28 30 34 37 38 34 32 39 42 36 38 36 29 30 29 36 35 37 39 38 36 24 25 26 29 31 30 29 31 27 26 22 30 25 29 33 34 34 34 33 30 28
35 33 33 33 36 35 34 33 35 34 35 35 34 40 41 33 38 30 32 34 33 36 35 36 27 27 20 29 29 25 31 31 29 28 28 28 26 40 43 39 34 32 31 28 27
40 40 40 34 34 33 35 35 37 37 38 41 40 41 37 40 41 42 41 42 40 33 31 30 27 22 24 26 27 23 32 34 31 31 28 24 34 37 35 33 33 30 30 28 26
MSLP
1021.02 1020.71 1020.48 1020.05 1019.79 1019.35 1018.91 1018.59 1018.32 1018.05 1017.81 1017.47 1017.08 1016.73 1016.45 1016.23 1015.58 1014.96 1015.14 1016.21 1015.49 1014.90 1014.20 1012.94 1012.60 1012.24 1011.98 1011.47 1011.35 1010.88 1009.79 1008.54 1008.21 1008.14 1008.28 1009.38 1009.57 1009.28 1009.45 1009.00 1008.19 1008.26 1007.83 1007.71 1008.47
1021.05 1020.89 1020.53 1020.16 1019.77 1019.37 1018.93 1018.65 1018.36 1018.04 1017.78 1017.48 1017.11 1016.81 1016.44 1016.26 1015.68 1015.25 1016.30 1015.87 1015.36 1014.88 1013.87 1013.01 1012.27 1012.06 1011.60 1011.48 1011.34 1010.62 1009.58 1009.00 1009.81 1009.97 1010.31 1010.48 1010.50 1010.10 1009.65 1008.91 1008.26 1007.79 1007.34 1008.01 1008.78
1021.13 1020.94 1020.57 1020.21 1019.74 1019.34 1018.97 1018.68 1018.33 1018.00 1017.73 1017.34 1017.05 1016.74 1016.53 1016.24 1015.52 1015.63 1015.97 1015.71 1015.30 1014.72 1013.93 1013.59 1012.95 1012.19 1011.80 1011.64 1011.71 1010.91 1010.22 1010.71 1010.63 1011.52 1011.97 1011.52 1010.95 1010.42 1010.18 1009.00 1008.50 1008.17 1008.30 1008.90 1009.19
1021.22 1021.00 1020.64 1020.17 1019.74 1019.34 1018.94 1018.70 1018.38 1017.98 1017.63 1017.24 1016.97 1016.67 1016.53 1015.93 1015.95 1015.90 1016.10 1015.70 1015.29 1014.48 1013.59 1013.24 1012.84 1012.19 1011.84 1011.88 1012.36 1012.00 1011.73 1011.78 1011.81 1012.28 1012.49 1011.95 1011.72 1010.86 1010.13 1009.16 1008.98 1008.85 1009.03 1009.03 1008.70
1021.28 1021.03 1020.64 1020.16 1019.66 1019.30 1018.93 1018.64 1018.30 1017.90 1017.57 1017.14 1016.86 1016.58 1016.50 1015.70 1016.38 1016.34 1016.20 1015.72 1014.90 1014.42 1013.87 1013.50 1013.09 1012.76 1012.45 1012.75 1012.81 1012.48 1012.42 1012.67 1012.79 1013.07 1012.84 1012.61 1011.77 1010.90 1009.59 1009.20 1008.96 1009.08 1009.21 1009.00 1008.80
1021.29 1021.05 1020.58 1020.11 1019.58 1019.26 1018.90 1018.58 1018.15 1017.76 1017.47 1017.07 1016.70 1016.44 1015.93 1016.06 1016.86 1016.59 1016.41 1015.83 1015.51 1014.83 1014.47 1014.05 1014.10 1013.79 1013.54 1013.59 1013.41 1013.45 1013.19 1012.85 1012.97 1013.07 1012.93 1012.78 1011.36 1010.78 1008.76 1008.76 1009.21 1009.28 1008.99 1008.68 1008.50
1021.28 1020.97 1020.45 1020.03 1019.53 1019.16 1018.84 1018.40 1018.03 1017.63 1017.33 1017.07 1016.73 1016.04 1015.62 1017.01 1016.90 1016.68 1016.47 1016.33 1016.13 1015.70 1015.05 1015.09 1014.70 1014.06 1014.20 1014.02 1014.33 1013.80 1013.15 1012.19 1012.80 1012.87 1012.65 1012.82 1010.29 1009.58 1008.63 1008.64 1008.97 1008.75 1008.45 1008.38 1008.45
1021.15 1020.82 1020.34 1019.97 1019.44 1019.14 1018.75 1018.28 1017.92 1017.57 1017.26 1016.99 1016.79 1016.00 1016.13 1016.96 1016.77 1016.72 1016.48 1016.16 1016.12 1016.03 1015.78 1015.56 1015.25 1014.77 1014.68 1014.77 1014.13 1013.27 1012.99 1011.99 1011.68 1012.58 1012.59 1012.82 1010.15 1008.53 1008.57 1008.44 1008.02 1007.92 1007.83 1007.98 1008.33
1021.00 1020.66 1020.22 1019.81 1019.43 1019.11 1018.62 1018.18 1017.88 1017.48 1017.21 1017.01 1016.68 1016.05 1016.36 1016.82 1016.70 1016.88 1016.74 1016.46 1016.12 1015.90 1015.73 1015.55 1015.20 1014.96 1014.41 1014.02 1013.57 1013.13 1012.87 1012.53 1012.38 1012.32 1012.92 1012.59 1010.61 1008.99 1008.39 1007.70 1007.44 1007.47 1007.55 1007.86 1008.16
1020.88 1020.54 1020.11 1019.69 1019.33 1018.90 1018.41 1018.00 1017.66 1017.25 1016.86 1016.61 1016.45 1016.57 1016.73 1017.14 1017.18 1017.05 1016.68 1016.61 1016.09 1015.62 1015.39 1015.20 1014.97 1014.45 1014.77 1014.37 1014.70 1014.57 1014.02 1013.44 1013.03 1012.54 1012.51 1011.93 1010.19 1008.43 1007.64 1007.11 1007.06 1007.15 1007.47 1007.90 1007.92
1020.72 1020.45 1020.03 1019.67 1019.24 1018.86 1018.16 1017.60 1017.99 1017.54 1017.17 1017.50 1017.61 1017.49 1017.54 1017.54 1017.38 1016.68 1016.62 1016.33 1015.82 1015.36 1015.10 1015.46 1015.08 1015.81 1016.51 1016.73 1016.75 1016.42 1015.53 1014.23 1013.21 1013.00 1012.89 1011.46 1009.96 1008.16 1007.14 1006.86 1006.81 1006.98 1007.29 1007.49 1007.79
1020.56 1020.34 1020.00 1019.65 1019.25 1018.94 1018.41 1018.22 1019.32 1019.58 1018.64 1018.31 1018.16 1018.01 1018.20 1018.26 1017.34 1017.01 1016.58 1016.07 1015.72 1015.59 1015.58 1015.66 1016.21 1017.37 1017.64 1017.50 1017.20 1016.50 1015.49 1014.38 1013.52 1013.22 1013.36 1011.36 1009.09 1007.61 1006.68 1006.64 1006.85 1006.97 1007.15 1007.49 1007.82
1020.45 1020.34 1020.00 1019.67 1019.29 1018.95 1019.09 1019.74 1019.95 1019.56 1018.53 1018.50 1018.46 1018.34 1018.59 1018.59 1018.04 1017.89 1017.52 1016.98 1016.57 1016.12 1016.29 1016.26 1017.57 1018.00 1018.05 1017.58 1017.40 1016.65 1015.86 1015.33 1015.04 1013.73 1012.68 1011.81 1008.30 1006.25 1006.02 1006.80 1007.09 1007.42 1007.62 1007.92 1007.95
1020.37 1020.34 1020.01 1019.62 1019.82 1019.38 1019.46 1019.97 1020.03 1019.79 1018.85 1018.66 1018.38 1018.79 1018.76 1018.52 1018.29 1018.49 1018.26 1017.94 1016.99 1017.04 1017.15 1017.32 1017.94 1018.34 1018.30 1017.93 1018.11 1016.89 1016.44 1016.07 1015.42 1014.66 1013.05 1012.47 1009.78 1007.13 1006.36 1006.59 1006.52 1007.01 1007.49 1007.75 1007.92
1020.22 1020.30 1020.07 1019.81 1019.60 1019.64 1020.03 1020.14 1020.03 1019.89 1019.41 1018.94 1018.47 1018.92 1018.80 1018.56 1018.88 1018.43 1018.70 1017.57 1017.59 1017.68 1017.79 1018.13 1018.20 1018.30 1018.40 1018.42 1018.68 1017.47 1016.78 1016.26 1015.64 1014.98 1014.11 1012.11 1011.52 1007.49 1006.40 1006.22 1006.55 1007.06 1007.38 1007.96 1008.28
1019.93 1020.16 1020.20 1019.91 1019.68 1020.36 1020.31 1020.11 1020.06 1020.06 1019.15 1018.94 1018.70 1018.77 1018.53 1018.64 1018.69 1018.54 1018.41 1018.15 1018.43 1018.05 1018.07 1018.30 1019.10 1019.05 1018.83 1018.77 1018.80 1018.22 1016.67 1015.61 1015.62 1015.19 1014.09 1012.28 1011.72 1008.16 1007.05 1007.40 1007.35 1007.63 1008.16 1008.43 1008.70
1019.77 1020.20 1020.31 1020.21 1020.24 1020.47 1020.38 1019.77 1020.45 1019.68 1019.26 1019.43 1019.23 1019.18 1019.11 1019.05 1018.86 1018.95 1018.61 1018.32 1018.65 1018.36 1018.06 1018.21 1018.72 1019.24 1019.40 1018.90 1018.54 1018.20 1017.21 1016.01 1015.76 1015.05 1013.53 1012.77 1011.69 1008.69 1007.80 1007.80 1008.36 1008.58 1008.83 1009.10 1008.98
1019.78 1020.35 1020.80 1020.86 1020.82 1020.63 1020.20 1020.01 1020.54 1019.31 1018.98 1019.33 1019.60 1019.77 1019.64 1019.91 1019.73 1019.30 1019.16 1019.13 1019.51 1019.52 1018.81 1018.85 1018.48 1019.23 1019.73 1019.76 1019.66 1019.33 1019.31 1018.71 1017.91 1015.98 1014.13 1012.82 1010.90 1008.33 1008.04 1008.57 1008.88 1009.46 1009.88 1009.76 1009.31
1019.52 1020.46 1020.91 1021.08 1021.23 1020.89 1020.29 1020.91 1019.58 1019.23 1019.50 1019.35 1019.87 1020.16 1020.45 1020.36 1020.31 1019.83 1019.69 1019.74 1020.26 1020.51 1020.28 1019.79 1019.10 1019.48 1019.92 1020.22 1020.38 1019.91 1019.83 1020.04 1019.39 1017.46 1015.91 1012.23 1009.93 1008.06 1008.28 1008.25 1008.87 1009.67 1009.98 1009.95 1009.78
1019.41 1020.37 1021.24 1021.55 1021.45 1021.00 1020.91 1020.41 1019.77 1019.55 1019.67 1019.59 1019.78 1020.21 1020.59 1020.98 1020.69 1020.17 1020.31 1020.57 1021.00 1021.51 1021.51 1021.10 1020.67 1019.74 1020.04 1020.53 1020.58 1020.58 1020.84 1020.42 1020.10 1018.30 1015.62 1012.11 1010.24 1008.06 1008.08 1008.43 1009.23 1009.49 1010.14 1010.23 1010.18
1019.39 1020.62 1021.48 1021.64 1021.44 1021.34 1021.10 1020.35 1019.88 1019.88 1019.89 1019.72 1019.75 1020.28 1020.73 1021.20 1021.45 1020.78 1020.55 1021.32 1021.12 1022.14 1022.36 1021.74 1022.10 1020.40 1020.22 1019.86 1019.53 1020.51 1020.71 1020.91 1020.64 1019.53 1017.52 1014.14 1010.29 1008.90 1008.97 1008.95 1009.60 1010.11 1010.81 1010.75 1010.59
1019.52 1021.04 1021.63 1021.84 1021.98 1021.96 1021.07 1020.16 1020.00 1019.96 1020.26 1020.09 1019.97 1020.10 1020.70 1021.10 1021.64 1021.32 1020.77 1021.18 1021.53 1022.35 1022.94 1022.55 1022.69 1021.10 1019.61 1019.85 1020.11 1020.12 1020.33 1020.57 1020.63 1019.64 1018.54 1016.90 1011.94 1009.62 1009.14 1009.66 1010.66 1011.21 1011.42 1011.51 1011.38
1019.78 1020.99 1021.77 1021.98 1021.87 1021.84 1021.07 1020.49 1020.23 1020.13 1020.03 1020.17 1020.01 1019.92 1021.12 1021.39 1022.01 1021.76 1021.45 1022.02 1022.16 1022.37 1023.46 1023.27 1023.15 1021.96 1020.33 1020.59 1020.45 1020.16 1020.07 1020.45 1020.97 1021.08 1019.19 1017.56 1011.53 1009.48 1009.90 1010.62 1011.52 1011.88 1011.91 1011.95 1011.66
1019.54 1020.77 1021.96 1022.21 1021.39 1020.81 1020.65 1020.26 1019.94 1020.02 1019.98 1020.07 1020.15 1020.41 1020.89 1021.36 1021.90 1021.94 1021.81 1022.50 1022.70 1022.68 1023.84 1023.72 1023.40 1022.61 1021.52 1020.25 1020.28 1019.96 1019.79 1020.05 1020.89 1020.67 1018.79 1016.19 1012.63 1011.41 1011.56 1011.89 1012.20 1012.42 1012.44 1012.37 1012.21
1017.64 1018.28 1018.85 1020.47 1020.39 1020.08 1019.85 1019.62 1019.52 1019.71 1020.30 1020.29 1020.23 1019.78 1019.73 1020.82 1021.58 1021.63 1021.70 1022.51 1022.83 1023.27 1023.90 1023.87 1023.54 1022.93 1021.84 1020.99 1020.45 1019.43 1019.16 1019.45 1019.56 1019.32 1019.05 1014.88 1015.02 1013.26 1013.21 1013.04 1013.09 1013.21 1013.04 1012.71 1012.49
1016.22 1017.29 1018.64 1018.97 1018.34 1019.69 1019.36 1018.87 1018.97 1019.40 1019.89 1019.88 1019.57 1018.91 1019.35 1019.59 1019.80 1020.41 1021.19 1021.73 1022.14 1023.38 1024.03 1024.08 1023.70 1023.36 1021.57 1020.50 1020.01 1018.68 1017.84 1017.86 1018.23 1018.48 1017.86 1016.71 1015.37 1013.68 1013.46 1013.46 1013.61 1013.86 1013.72 1013.34 1013.17
1014.93 1015.98 1015.48 1017.86 1018.10 1018.70 1017.40 1017.53 1017.94 1018.80 1019.46 1019.46 1019.26 1019.32 1019.51 1019.37 1020.04 1020.35 1021.00 1021.26 1021.99 1022.78 1023.88 1024.19 1024.25 1024.06 1021.66 1020.59 1019.45 1017.27 1014.75 1015.31 1015.86 1016.15 1016.27 1015.71 1013.72 1013.29 1013.43 1013.85 1014.37 1014.66 1014.56 1014.16 1013.89
Wind_Speed
12 13 13 12 12 12 13 14 14 14 14 14 13 13 12 9 13 13 14 14 14 17 19 7 5 4 7 5 5 4 8 11 14 13 8 5 9 4 6 15 11 7 9 5 12
11 13 13 13 13 12 13 13 14 14 14 14 13 14 10 5 5 13 12 19 16 16 9 5 4 6 4 4 4 10 9 8 7 6 8 12 11 13 13 15 18 16 15 9 17
12 13 13 13 13 13 13 14 13 13 13 13 12 14 8 6 4 8 19 20 17 14 3 2 1 2 2 3 1 1 7 8 2 6 8 12 15 13 15 17 16 17 17 15 15
12 13 14 13 14 14 14 15 15 14 12 11 12 12 6 6 2 11 19 18 14 11 2 2 2 3 3 3 1 5 3 6 6 6 8 10 12 12 15 20 17 15 14 14 15
12 14 14 14 14 14 15 15 15 14 13 11 11 10 4 3 7 14 15 12 7 8 12 4 6 2 2 2 2 4 3 5 4 5 9 10 14 14 22 19 16 9 11 15 17
11 13 14 14 14 15 16 16 16 13 11 11 9 7 3 3 6 13 12 9 11 10 11 13 6 6 5 2 3 4 8 8 4 6 8 9 16 14 8 4 7 11 17 16 16
11 13 14 14 14 15 16 17 14 11 9 10 9 4 9 6 4 11 9 6 7 8 6 7 6 1 1 2 3 5 7 7 5 4 10 11 14 12 11 5 10 16 16 14 13
10 12 13 14 14 16 18 17 11 9 8 7 6 4 4 1 5 12 10 2 4 4 3 4 4 4 5 1 4 5 5 7 3 5 1 7 11 13 14 14 18 16 13 10 9
10 12 13 13 14 16 18 16 8 8 5 6 4 4 4 2 3 10 8 6 6 1 3 2 1 2 0 4 6 3 9 12 11 3 5 7 16 20 22 16 15 12 11 7 6
10 11 13 13 15 17 19 8 5 6 5 3 2 4 3 4 5 9 7 5 3 3 2 3 0 1 9 10 5 12 10 10 14 9 14 19 24 21 20 13 12 9 5 6 6
8 11 12 13 14 16 11 3 4 4 8 5 4 3 3 9 2 10 7 5 1 3 3 4 4 7 9 8 5 8 13 18 16 15 11 14 26 22 18 9 8 5 6 7 6
7 10 12 12 14 12 6 3 3 5 2 3 2 1 2 5 3 13 11 3 4 5 4 4 6 5 5 4 7 11 17 15 10 18 17 19 29 23 10 7 5 8 8 9 9
6 8 10 13 10 2 5 4 4 3 4 3 3 3 3 6 4 9 10 1 4 5 7 4 4 4 4 6 9 14 11 14 18 25 15 12 17 2 5 4 6 10 10 10 12
6 7 8 14 4 1 2 1 4 4 2 2 2 3 2 3 1 5 6 4 3 5 4 3 3 4 5 6 6 11 5 14 18 15 6 10 9 14 3 6 10 7 10 11 13
5 5 4 9 3 2 3 3 3 5 3 2 2 2 3 3 4 5 2 1 4 3 3 4 3 4 4 5 7 9 17 18 15 11 11 2 5 7 13 8 14 16 10 13 16
6 2 4 3 1 3 3 1 2 3 6 2 1 1 2 4 3 5 1 3 2 1 1 3 1 1 3 11 7 14 16 10 4 5 5 1 3 10 6 14 18 18 16 18 24
7 3 2 2 2 2 2 3 3 3 1 1 1 3 2 4 2 6 3 5 4 1 3 2 3 2 1 9 3 13 12 4 3 3 4 2 10 11 14 14 11 15 22 25 25
11 5 4 3 2 2 2 2 2 1 4 3 2 1 2 3 1 1 1 2 5 3 1 4 1 3 2 2 5 6 5 3 6 7 12 15 9 6 15 7 9 22 23 24 22
14 3 1 3 4 3 1 2 6 3 1 7 5 2 1 1 2 2 1 2 2 3 2 3 3 4 2 1 3 2 1 3 5 9 7 7 11 17 1 13 20 23 24 22 19
4 4 2 5 4 3 4 5 3 0 4 2 4 2 3 2 4 3 3 2 3 1 4 3 6 3 4 3 3 1 4 3 3 7 9 6 13 10 14 21 20 24 25 23 24
5 4 2 2 1 1 4 6 3 3 2 4 4 4 2 3 3 3 3 3 3 3 3 3 1 3 1 7 1 4 3 3 2 5 5 9 9 10 12 18 22 26 24 21 22
4 3 3 3 3 0 3 4 2 5 3 2 2 3 4 6 4 4 3 1 6 6 2 2 2 6 2 2 2 4 4 4 3 2 7 8 13 10 14 20 22 25 21 17 21
5 2 3 4 6 6 1 2 3 5 5 6 6 2 2 4 3 3 3 3 7 6 5 5 3 6 4 3 3 4 9 8 1 2 10 5 11 14 20 23 22 22 19 20 20
5 4 2 1 1 2 4 4 3 4 3 3 3 4 4 3 3 3 5 4 6 4 2 4 3 6 7 5 3 6 8 9 8 5 6 15 24 25 20 24 21 20 21 20 18
4 4 5 7 7 7 5 6 5 7 5 7 3 10 7 6 4 5 5 5 5 6 6 4 5 5 12 19 17 18 19 17 18 15 9 17 15 26 23 16 17 18 21 20 20
7 5 2 3 7 16 8 9 10 5 10 7 8 11 12 6 5 7 8 7 5 9 7 5 3 5 7 4 7 14 17 16 17 16 20 25 29 25 12 14 17 19 21 20 20
3 1 5 10 7 13 10 11 11 10 8 3 10 4 12 8 6 7 5 5 7 8 10 6 3 2 6 5 14 10 10 14 8 10 8 9 9 9 15 15 13 17 19 18 18
Wind_Direction
355 351 346 349 347 348 351 351 349 348 343 339 339 339 330 318 302 38 32 343 329 329 312 295 235 187 206 187 243 250 246 249 262 265 300 39 344 292 320 281 268 274 281 330 5
349 346 343 343 344 346 348 347 345 344 340 335 340 339 331 311 285 32 4 346 338 334 338 335 113 181 153 185 195 229 240 275 18 0 309 320 310 312 308 292 283 285 281 353 334
343 341 340 338 341 343 343 341 338 338 333 331 337 345 332 284 271 2 357 344 338 323 323 326 235 228 148 221 31 215 271 24 351 359 325 302 298 310 286 277 279 300 312 313 317
338 336 334 336 338 340 340 335 332 329 325 327 336 342 311 248 5 352 349 338 329 326 30 350 223 182 153 182 337 267 310 327 341 337 310 297 316 281 273 275 296 297 303 307 309
332 331 331 333 335 334 335 331 328 324 320 323 335 338 274 75 21 342 340 341 344 355 28 30 55 357 103 77 213 264 338 301 296 302 306 301 281 287 282 280 282 287 285 293 299
326 327 330 330 334 333 331 328 325 319 317 318 329 322 261 74 341 352 347 351 8 8 30 40 51 33 85 63 324 337 290 276 292 251 293 287 293 293 263 347 285 284 296 295 299
320 325 330 330 332 331 326 329 323 316 316 314 321 307 63 77 346 354 348 360 352 3 26 34 4 62 276 164 343 307 295 241 187 331 302 315 281 225 261 306 290 275 278 293 303
314 323 329 327 330 328 324 324 317 324 307 311 297 264 76 88 325 9 354 279 6 7 347 359 349 69 21 313 242 309 246 342 73 13 8 342 293 304 332 304 288 290 292 304 307
308 319 324 327 328 325 321 318 295 325 313 303 257 283 95 171 349 353 4 342 311 264 1 326 359 37 19 293 220 110 315 318 320 271 301 269 293 291 304 297 291 287 287 294 283
303 314 322 327 329 328 321 297 296 286 244 242 211 224 70 342 323 318 9 327 337 314 215 3 294 7 28 9 359 322 320 315 307 302 318 290 286 295 301 296 286 285 275 254 270
297 313 320 325 331 335 329 247 218 174 44 44 26 348 3 333 250 13 353 309 283 78 15 29 40 27 11 13 339 307 300 301 302 328 309 286 296 298 299 289 271 260 248 257 273
291 310 318 326 330 332 294 22 37 353 95 41 14 357 337 334 283 16 347 29 28 37 336 201 59 25 334 337 315 302 300 311 305 325 319 300 294 293 277 266 282 290 267 269 286
284 306 319 330 319 329 46 50 321 299 273 112 42 355 349 321 28 360 356 10 19 43 24 44 68 346 332 329 327 313 297 326 311 320 300 312 286 267 274 229 264 275 278 285 280
275 302 329 333 275 360 69 57 290 297 286 174 126 73 278 310 194 356 12 350 78 34 10 50 83 350 331 307 322 306 347 312 310 317 306 359 295 315 332 272 300 296 276 277 307
249 287 344 9 358 297 61 306 297 251 323 99 105 3 327 338 340 48 342 254 53 16 293 59 356 1 304 315 328 282 317 301 296 291 308 141 257 283 292 311 344 336 314 303 316
205 235 307 235 117 47 323 318 272 34 250 161 307 340 221 27 36 321 338 76 31 182 110 58 99 254 333 309 288 294 302 310 267 282 256 286 280 286 345 336 328 334 330 323 317
170 130 305 323 26 55 314 237 12 194 77 315 60 10 27 24 44 360 18 45 22 346 14 248 169 124 336 307 194 349 338 346 290 245 294 120 295 259 313 335 336 328 328 319 319
139 130 42 28 4 323 246 57 224 291 212 129 95 70 262 353 49 23 216 136 56 343 323 344 249 202 103 34 314 4 7 28 304 316 303 300 239 272 340 2 329 336 324 320 317
129 100 69 44 328 290 126 107 225 204 129 146 112 122 280 212 288 231 1 107 61 354 3 311 246 129 139 324 270 62 348 354 274 250 265 243 274 284 97 329 334 331 327 319 321
108 123 81 335 336 259 84 239 223 69 145 178 177 173 194 207 226 203 195 117 136 343 319 85 291 164 111 235 200 284 348 233 181 301 297 272 307 299 337 330 338 338 330 326 324
86 120 74 323 258 82 197 225 212 175 213 205 179 143 190 198 258 210 146 157 164 160 308 109 286 142 204 205 200 164 183 220 280 266 294 309 298 351 316 339 342 339 330 323 325
130 145 22 288 88 357 214 198 175 166 189 197 205 122 179 157 197 242 191 196 156 151 202 104 293 269 270 136 325 249 233 192 233 242 251 284 270 277 326 346 341 335 320 328 328
108 102 34 299 162 213 229 220 250 173 202 194 184 140 138 180 231 220 175 116 163 155 197 171 207 297 202 182 165 230 202 225 237 283 241 272 271 325 326 336 335 331 331 334 333
143 152 107 217 52 235 162 202 191 215 224 209 129 127 140 152 186 213 197 168 178 176 146 167 238 241 261 337 12 240 233 221 183 239 268 242 276 297 318 325 333 333 336 336 339
154 207 159 178 205 189 188 177 169 188 231 199 193 220 176 155 188 221 173 152 172 174 194 227 254 228 258 272 278 272 263 249 235 222 236 276 308 295 307 317 335 334 336 338 343
147 162 112 161 140 181 188 195 199 139 169 224 232 200 195 168 197 185 159 182 178 176 198 212 272 319 284 271 261 272 260 240 236 241 254 263 276 279 317 333 342 343 338 341 345
118 16 113 156 155 174 199 191 202 135 217 280 223 174 206 215 104 79 88 101 152 160 188 179 255 309 272 348 309 273 253 209 200 204 206 227 250 336 329 329 337 342 341 342 343